GW1943 Weather Reports


time (UTC)temp
F
wind
direction
speed
knots
gust
knots
rain 1hr
in
rain 24hr
in
rain mn
in
humidity
%
barometer
mb
20260502230616 75 203 0.9 5.2 0.00 0.00 0.00 53 1015.1
20260502230114 76 40 1.7 4.3 0.00 0.00 0.00 51 1015.0
20260502225609 77 220 0.9 2.6 0.00 0.00 0.00 50 1015.2
20260502225107 76 194 0.9 1.7 0.00 0.00 0.00 51 1015.4
20260502224603 77 46 2.6 6.1 0.00 0.00 0.00 50 1015.4
20260502224100 77 220 2.6 2.6 0.00 0.00 0.00 48 1015.4
20260502223558 77 195 1.7 4.3 0.00 0.00 0.00 50 1015.4
20260502223056 75 210 2.6 4.3 0.00 0.00 0.00 52 1015.6
20260502222553 75 30 2.6 6.1 0.00 0.00 0.00 52 1015.6
20260502222049 75 110 1.7 5.2 0.00 0.00 0.00 53 1015.5
20260502221545 74 358 0.9 2.6 0.00 0.00 0.00 57 1015.8
20260502221043 74 20 0.9 4.3 0.00 0.00 0.00 55 1015.6
20260502220538 74 207 0.0 2.6 0.00 0.00 0.00 59 1015.8
20260502220035 73 237 3.5 5.2 0.00 0.00 0.00 58 1015.7
20260502215532 73 250 2.6 5.2 0.00 0.00 0.00 57 1016.1
20260502215029 75 54 2.6 4.3 0.00 0.00 0.00 57 1016.1
20260502214526 75 79 1.7 4.3 0.00 0.00 0.00 59 1015.9
20260502214024 74 34 0.0 2.6 0.00 0.00 0.00 60 1016.2
20260502213520 73 38 0.9 2.6 0.00 0.00 0.00 58 1016.0
20260502213018 73 218 0.0 1.7 0.00 0.00 0.00 60 1015.9
20260502212517 73 218 0.0 4.3 0.00 0.00 0.00 61 1016.2
20260502212014 73 282 0.9 2.6 0.00 0.00 0.00 62 1016.2
20260502211509 73 208 0.9 1.7 0.00 0.00 0.00 61 1016.2
20260502211007 73 33 2.6 4.3 0.00 0.00 0.00 58 1016.4
20260502210504 72 218 0.0 2.6 0.00 0.00 0.00 61 1016.6
20260502210001 73 135 0.0 1.7 0.00 0.00 0.00 59 1016.2
20260502205456 72 188 1.7 2.6 0.00 0.00 0.00 58 1016.3
20260502204954 72 216 1.7 2.6 0.00 0.00 0.00 59 1016.4
20260502204451 72 255 0.9 1.7 0.00 0.00 0.00 59 1016.7
20260502203949 70 222 0.0 1.7 0.00 0.00 0.00 64 1016.4
20260502203446 70 69 2.6 4.3 0.00 0.00 0.00 61 1016.4
20260502202942 71 220 1.7 2.6 0.00 0.00 0.00 62 1016.7
20260502202439 70 213 0.0 1.7 0.00 0.00 0.00 66 1016.8
20260502201937 71 212 0.0 6.1 0.00 0.00 0.00 65 1016.7
20260502201433 70 29 1.7 2.6 0.00 0.00 0.00 63 1016.8
20260502200930 70 214 1.7 5.2 0.00 0.00 0.00 64 1016.8
20260502200425 70 153 2.6 2.6 0.00 0.00 0.00 62 1016.9
20260502195923 69 205 0.9 4.3 0.00 0.00 0.00 65 1017.0
20260502195420 69 192 1.7 4.3 0.00 0.00 0.00 65 1016.9
20260502194916 69 126 2.6 2.6 0.00 0.00 0.00 65 1017.1
20260502194414 69 182 1.7 2.6 0.00 0.00 0.00 65 1017.1
20260502193909 69 219 0.9 1.7 0.00 0.00 0.00 68 1017.3
20260502193407 69 110 1.7 2.6 0.00 0.00 0.00 66 1017.2
20260502192902 67 189 0.0 1.7 0.00 0.00 0.00 69 1017.1
20260502192359 67 141 1.7 1.7 0.00 0.00 0.00 68 1017.2
20260502191856 67 53 1.7 2.6 0.00 0.00 0.00 68 1017.2
20260502191354 67 219 0.0 1.7 0.00 0.00 0.00 72 1017.3
20260502190851 66 196 0.0 1.7 0.00 0.00 0.00 70 1017.4
20260502190349 66 202 0.0 1.7 0.00 0.00 0.00 71 1017.6
20260502185844 65 120 0.9 1.7 0.00 0.00 0.00 71 1017.4
20260502185340 64 193 0.0 2.6 0.00 0.00 0.00 73 1017.6
20260502184837 64 206 0.0 4.3 0.00 0.00 0.00 75 1017.4
20260502184333 64 193 0.9 2.6 0.00 0.00 0.00 73 1017.5
20260502183830 64 209 0.9 0.9 0.00 0.00 0.00 76 1017.5
20260502183326 63 211 0.0 1.7 0.00 0.00 0.00 75 1017.7
20260502182821 63 187 0.0 0.9 0.00 0.00 0.00 76 1017.6
20260502182316 62 85 2.6 2.6 0.00 0.00 0.00 76 1017.7
20260502181813 62 220 0.9 1.7 0.00 0.00 0.00 77 1017.5
20260502181312 62 231 1.7 2.6 0.00 0.00 0.00 77 1017.5
20260502180809 61 210 0.0 1.7 0.00 0.00 0.00 78 1017.8
20260502180307 61 234 0.0 1.7 0.00 0.00 0.00 79 1017.7
20260502170226 59 210 0.0 0.0 0.00 0.00 0.00 81 1018.0
20260502164213 58 213 0.0 0.9 0.00 0.00 0.00 82 1018.4
20260502163708 58 207 0.9 0.9 0.00 0.00 0.00 83 1018.3
20260502163205 58 214 0.0 0.9 0.00 0.00 0.00 84 1018.2
20260502162702 57 216 0.0 0.9 0.00 0.00 0.00 84 1018.3
20260502162159 57 222 0.9 1.7 0.00 0.00 0.00 85 1018.1
20260502161656 56 216 0.0 0.9 0.00 0.00 0.00 86 1018.0
20260502161152 56 197 0.0 0.9 0.00 0.00 0.00 87 1018.2
20260502160651 56 168 0.9 1.7 0.00 0.00 0.00 87 1018.1
20260502160150 55 215 0.0 0.9 0.00 0.00 0.00 88 1018.1
20260502152103 54 208 0.0 0.9 0.00 0.00 0.00 90 1018.1
20260502151600 54 211 0.0 0.0 0.00 0.00 0.00 91 1017.7
20260502151058 54 206 0.0 0.0 0.00 0.00 0.00 91 1018.2
20260502150555 54 206 0.0 0.0 0.00 0.00 0.00 92 1017.9
20260502130440 51 214 0.0 0.0 0.00 0.00 0.00 94 1018.1
20260502123423 51 212 0.0 0.0 0.00 0.00 0.00 94 1017.7
20260502122920 51 212 0.0 0.0 0.00 0.00 0.00 93 1018.1
20260502122416 51 212 0.0 0.0 0.00 0.00 0.00 93 1018.1
20260502121914 51 212 0.0 0.0 0.00 0.00 0.00 93 1017.9
20260502121411 52 212 0.0 0.0 0.00 0.00 0.00 93 1018.0
20260502120909 52 212 0.0 0.0 0.00 0.00 0.00 92 1018.1
20260502120404 52 212 0.9 1.7 0.00 0.00 0.00 92 1018.2
20260502115902 52 209 0.0 0.9 0.00 0.00 0.00 92 1018.1
20260502115359 52 207 0.0 0.0 0.00 0.00 0.00 92 1018.2
20260502114855 52 205 0.0 0.0 0.00 0.00 0.00 92 1018.0
20260502114352 52 204 0.0 0.0 0.00 0.00 0.00 92 1018.2
20260502113849 52 202 0.0 0.0 0.00 0.00 0.00 91 1017.6
20260502113346 52 202 0.0 0.0 0.00 0.00 0.00 91 1018.1
20260502112845 52 202 0.0 0.0 0.00 0.00 0.00 91 1018.1
20260502112342 52 208 0.0 0.0 0.00 0.00 0.00 90 1018.3
20260502111839 53 211 0.0 0.9 0.00 0.00 0.00 90 1018.5
20260502111337 53 211 1.7 4.3 0.00 0.00 0.00 90 1018.9
20260502110834 53 209 0.9 1.7 0.00 0.00 0.00 90 1018.8
20260502110332 52 210 1.7 1.7 0.00 0.00 0.00 90 1018.8
20260502105829 52 212 0.0 0.0 0.00 0.00 0.00 90 1018.7
20260502105326 52 210 0.9 1.7 0.00 0.00 0.00 90 1018.7
20260502104824 51 197 0.0 0.0 0.00 0.00 0.00 89 1018.3
20260502104321 51 196 0.0 0.0 0.00 0.00 0.00 89 1018.1
20260502103818 51 196 0.0 0.0 0.00 0.00 0.00 88 1018.0
20260502103315 51 196 0.0 0.0 0.00 0.00 0.00 88 1018.0
20260502102813 51 196 0.0 0.0 0.00 0.00 0.00 87 1017.9
20260502102309 52 196 0.0 0.0 0.00 0.00 0.00 86 1017.9
20260502101807 52 196 0.0 0.0 0.00 0.00 0.00 86 1017.6
20260502101305 52 196 0.0 0.0 0.00 0.00 0.00 85 1017.8
20260502100803 52 196 0.0 0.0 0.00 0.00 0.00 85 1017.9
20260502100302 52 196 0.0 0.0 0.00 0.00 0.00 84 1017.8
20260502091235 53 196 0.0 0.0 0.00 0.00 0.00 77 1018.0
20260502090733 54 196 0.0 0.0 0.00 0.00 0.00 77 1017.9
20260502090229 54 196 0.0 0.0 0.00 0.00 0.00 75 1017.9
20260502071130 58 203 0.0 0.0 0.00 0.00 0.00 65 1017.6
20260502070628 58 204 0.9 0.9 0.00 0.00 0.00 63 1017.9
20260502070126 58 202 0.0 0.0 0.00 0.00 0.00 62 1017.7
20260502065624 58 208 0.0 0.0 0.00 0.00 0.00 64 1017.7
20260502065121 58 209 0.0 0.0 0.00 0.00 0.00 64 1017.6
20260502064620 58 196 0.0 0.0 0.00 0.00 0.00 63 1017.6
20260502064116 59 196 0.0 0.0 0.00 0.00 0.00 61 1017.5
20260502063614 59 196 0.0 0.0 0.00 0.00 0.00 62 1017.4
20260502063112 59 196 0.0 0.0 0.00 0.00 0.00 61 1017.6
20260502062609 59 196 0.0 0.9 0.00 0.00 0.00 63 1017.7
20260502062106 59 63 1.7 1.7 0.00 0.00 0.00 60 1017.8
20260502061604 59 78 0.9 1.7 0.00 0.00 0.00 61 1017.8
20260502061101 59 197 0.0 0.0 0.00 0.00 0.00 64 1017.6
20260502060556 59 196 0.0 0.0 0.00 0.00 0.00 62 1017.5
20260502060053 58 191 0.9 0.9 0.00 0.00 0.00 62 1017.5
20260502055551 59 201 0.0 0.0 0.00 0.00 0.00 63 1017.5
20260502055049 59 201 0.0 0.0 0.00 0.00 0.00 65 1017.4
20260502054548 59 201 0.0 0.0 0.00 0.00 0.00 66 1017.2
20260502054044 59 201 0.0 0.0 0.00 0.00 0.00 64 1017.4
20260502053541 59 200 0.0 0.0 0.00 0.00 0.00 64 1017.2
20260502053039 59 201 0.0 0.0 0.00 0.00 0.00 67 1017.3
20260502052538 59 201 0.0 0.0 0.00 0.00 0.00 69 1017.2
20260502052035 59 198 0.0 0.0 0.00 0.00 0.00 70 1017.0
20260502051533 59 198 0.0 0.0 0.00 0.00 0.00 72 1016.9
20260502051030 59 198 0.0 0.0 0.00 0.00 0.00 73 1017.1
20260502050526 59 198 0.0 0.0 0.00 0.00 0.00 75 1017.0
20260502050024 59 198 0.0 0.0 0.00 0.00 0.00 77 1017.3
20260502045520 59 198 0.0 0.0 0.00 0.00 0.00 78 1016.9
20260502045017 59 198 0.0 0.0 0.00 0.00 0.00 77 1017.0
20260502044514 59 198 0.0 0.0 0.00 0.00 0.00 79 1017.0
20260502044010 59 198 0.0 0.0 0.00 0.00 0.00 79 1017.0
20260502043508 59 198 0.0 0.0 0.00 0.00 0.00 79 1017.1
20260502043004 59 198 0.0 0.0 0.00 0.00 0.00 79 1016.8
20260502042459 59 198 0.0 0.0 0.00 0.00 0.00 78 1017.0
20260502041957 60 198 0.0 0.0 0.00 0.00 0.00 77 1016.8
20260502041455 60 198 0.0 0.0 0.00 0.00 0.00 76 1016.7
20260502040951 60 198 0.0 0.0 0.00 0.00 0.00 76 1016.7
20260502040448 61 198 0.0 0.0 0.00 0.00 0.00 75 1016.6
20260502035944 61 198 0.0 0.0 0.00 0.00 0.00 75 1016.8
20260502035440 62 198 0.0 0.0 0.00 0.00 0.00 73 1016.7
20260502034938 62 193 0.9 0.9 0.00 0.00 0.00 72 1016.3
20260502034437 62 164 0.9 1.7 0.00 0.00 0.00 71 1016.3
20260502033935 62 199 0.9 2.6 0.00 0.00 0.00 71 1016.4
20260502033432 62 207 0.0 0.9 0.00 0.00 0.00 70 1016.4
20260502032928 62 149 1.7 1.7 0.00 0.00 0.00 70 1016.4
20260502032425 62 191 1.7 2.6 0.00 0.00 0.00 70 1016.2
20260502031922 62 195 0.0 1.7 0.00 0.00 0.00 69 1015.9
20260502031421 63 220 0.9 1.7 0.00 0.00 0.00 69 1015.9
20260502030919 63 195 0.9 0.9 0.00 0.00 0.00 68 1016.0
20260502030417 63 210 0.0 0.9 0.00 0.00 0.00 67 1016.1
20260502025914 64 196 0.0 0.0 0.00 0.00 0.00 67 1016.1
20260502025411 64 133 0.9 1.7 0.00 0.00 0.00 65 1015.9
20260502024909 64 189 0.0 1.7 0.00 0.00 0.00 65 1015.5
20260502024407 65 205 0.9 1.7 0.00 0.00 0.00 63 1015.6
20260502023904 65 203 0.9 2.6 0.00 0.00 0.00 62 1015.9
20260502023402 66 184 0.9 1.7 0.00 0.00 0.00 61 1015.7
20260502022859 66 173 0.0 0.9 0.00 0.00 0.00 60 1015.5
20260502022355 66 196 0.0 0.9 0.00 0.00 0.00 59 1015.7
20260502021852 66 222 0.9 1.7 0.00 0.00 0.00 57 1015.6
20260502021350 67 199 0.9 1.7 0.00 0.00 0.00 57 1015.5
20260502020847 67 210 0.0 0.9 0.00 0.00 0.00 55 1015.6
20260502020344 67 200 0.9 0.9 0.00 0.00 0.00 55 1015.6
20260502015841 68 207 0.0 1.7 0.00 0.00 0.00 54 1015.4
20260502015338 68 179 0.0 0.9 0.00 0.00 0.00 53 1015.7
20260502014836 68 197 0.0 0.9 0.00 0.00 0.00 52 1015.7
20260502014333 68 203 0.0 0.9 0.00 0.00 0.00 53 1015.7
20260502013828 69 203 0.0 0.0 0.00 0.00 0.00 51 1015.6
20260502013324 69 181 0.9 1.7 0.00 0.00 0.00 51 1015.9
20260502012821 69 193 0.0 1.7 0.00 0.00 0.00 50 1015.8
20260502012319 69 125 0.9 1.7 0.00 0.00 0.00 50 1015.9
20260502011816 70 220 0.0 0.9 0.00 0.00 0.00 52 1015.7
20260502011312 70 220 0.9 0.9 0.00 0.00 0.00 49 1015.9
20260502010809 70 188 0.9 1.7 0.00 0.00 0.00 49 1015.9
20260502010306 70 207 0.0 0.0 0.00 0.00 0.00 50 1015.5
20260502005803 69 188 0.0 0.0 0.00 0.00 0.00 50 1016.0
20260502005301 69 194 0.0 1.7 0.00 0.00 0.00 50 1015.8
20260502004757 70 196 0.9 1.7 0.00 0.00 0.00 49 1015.8
20260502004253 70 229 0.9 2.6 0.00 0.00 0.00 50 1016.0
20260502003752 70 194 0.9 1.7 0.00 0.00 0.00 50 1015.9
20260502003248 70 101 1.7 1.7 0.00 0.00 0.00 51 1015.8
20260502002738 71 189 0.9 2.6 0.00 0.00 0.00 50 1015.9
20260502002236 71 210 0.0 1.7 0.00 0.00 0.00 48 1016.0
20260502001733 71 190 0.0 1.7 0.00 0.00 0.00 50 1015.7
20260502001231 72 202 0.0 0.9 0.00 0.00 0.00 49 1015.9
20260502000729 71 215 0.0 2.6 0.00 0.00 0.00 50 1016.0
20260502000227 71 201 0.0 1.7 0.00 0.00 0.00 51 1015.7
20260501235722 71 10 0.0 2.6 0.00 0.00 0.00 54 1015.7
20260501235218 72 214 0.9 2.6 0.00 0.00 0.00 50 1015.6
20260501234714 73 64 1.7 1.7 0.00 0.00 0.00 47 1015.8
20260501234211 73 57 1.7 2.6 0.00 0.00 0.00 48 1015.6
20260501233709 73 180 0.9 1.7 0.00 0.00 0.00 46 1015.9
20260501233206 73 200 0.0 1.7 0.00 0.00 0.00 50 1015.8
20260501232702 73 217 0.0 1.7 0.00 0.00 0.00 52 1015.8
20260501232159 73 130 2.6 2.6 0.00 0.00 0.00 48 1015.9
20260501231657 73 17 2.6 2.6 0.00 0.00 0.00 48 1015.8
20260501231155 74 148 0.0 0.9 0.00 0.00 0.00 45 1015.7